Location: Unspecified
(0.0000°N, 0.0000°E)
Time: 22:03:37
(UTC+02:00)

NATO 3D Rocket - Visible Passes

Search period start: 30 March 2015 00:00
Search period end: 09 April 2015 00:00
Orbit: 670 x 2297 km, 21.5° (Epoch: 30 March)

Date Brightness Start Highest point End Pass type
(mag) Time Alt. Az. Time Alt. Az. Time Alt. Az.
30 Mar 4.4 06:10:24 43° S 06:10:24 43° S 06:14:32 10° SE visible
30 Mar 6.9 20:33:33 10° WNW 20:44:59 34° N 20:57:01 10° NE visible
30 Mar 6.7 22:42:19 10° NW 22:53:29 27° N 22:55:46 26° NNE visible
31 Mar 7.5 00:50:30 10° NW 00:51:18 12° NW 00:51:18 12° NW visible
31 Mar 6.1 05:17:06 17° ESE 05:17:06 17° ESE 05:18:15 10° ESE visible
31 Mar 5.2 07:12:40 14° WSW 07:15:45 20° SSW 07:19:25 10° SSE visible
31 Mar 6.9 21:42:54 10° WNW 21:54:05 28° N 22:02:09 17° NE visible
31 Mar 7.0 23:51:09 10° NW 23:57:41 24° NNW 23:57:41 24° NNW visible
01 Apr 4.9 06:19:19 30° SSW 06:19:19 30° SSW 06:23:33 10° SE visible
01 Apr 6.9 20:43:51 10° WNW 20:54:41 30° N 21:06:09 10° NE visible
01 Apr 6.7 22:51:53 10° NW 23:03:18 29° N 23:04:01 29° N visible
02 Apr 7.6 00:59:04 10° NW 00:59:33 11° NW 00:59:33 11° NW visible
02 Apr 6.0 05:25:58 19° SE 05:25:58 19° SE 05:27:27 10° SE visible
02 Apr 5.6 07:22:17 10° SW 07:25:17 13° SSW 07:27:49 10° S visible
02 Apr 6.8 21:52:49 10° NW 22:03:54 28° N 22:10:20 20° NE visible
02 Apr 7.0 23:59:58 10° NW 00:05:52 25° NNW 00:05:52 25° NNW visible
03 Apr 5.4 06:28:07 21° SSW 06:28:07 21° SSW 06:32:22 10° SSE visible
03 Apr 6.9 20:54:03 10° NW 21:04:29 28° N 21:15:42 10° NE visible
03 Apr 6.6 23:01:01 10° NW 23:12:09 33° N 23:12:09 33° N visible
04 Apr 7.7 01:07:32 10° NW 01:07:40 10° NW 01:07:40 10° NW visible
04 Apr 6.0 05:34:42 18° SSE 05:34:42 18° SSE 05:36:28 10° SE visible
04 Apr 6.7 22:02:18 10° NW 22:13:40 30° N 22:18:25 26° NE visible
05 Apr 7.0 00:08:35 10° NW 00:13:57 25° NW 00:13:57 25° NW visible
05 Apr 5.8 06:36:48 16° SSW 06:37:33 16° SSW 06:41:04 10° SSE visible
05 Apr 6.8 21:03:53 10° NW 21:14:17 28° N 21:24:41 12° ENE visible
05 Apr 6.5 23:09:51 10° NW 23:20:12 38° N 23:20:12 38° N visible
06 Apr 6.0 05:43:19 17° SSE 05:43:19 17° SSE 05:45:23 10° SSE visible
06 Apr 6.9 20:05:47 10° NW 20:15:02 26° N 20:25:50 10° NE visible
06 Apr 6.4 22:11:25 10° NW 22:23:17 35° NNE 22:26:28 32° NE visible
07 Apr 7.0 00:17:08 10° NW 00:21:59 25° NW 00:21:59 25° NW visible
07 Apr 6.1 06:45:21 12° SSW 06:47:14 13° SSW 06:49:50 10° S visible
07 Apr 6.7 21:13:19 10° NW 21:23:59 31° NNE 21:32:43 17° ENE visible
07 Apr 6.4 23:18:32 10° NW 23:28:15 43° NNW 23:28:15 43° NNW visible
08 Apr 6.1 05:51:48 16° S 05:51:48 16° S 05:54:20 10° SSE visible
08 Apr 6.8 20:15:32 10° NW 20:24:50 27° N 20:35:51 10° ENE visible
08 Apr 6.2 22:20:17 10° NW 22:32:40 43° NNE 22:34:30 41° NE visible
